Observer details:
104 San Marcello Pistoiese.  Observers P. Bacci, M. Maestripieri.  Measurer P.
    Bacci.  0.60-m f/4.0 reflector + CCD.
106 Crni Vrh.  Observer J. Vales.  Measurer H. Mikuz.  0.60-m f/3.3 reflector
    + CMO.
C43 Hoyerswerda.  Observer P. Lindner.  0.30-m f/6.3 Schmidt-Cassegrain + CCD.
E23 Arcadia.  Observer A. Hidas.  0.35-m f/1.9 reflector + CCD.
F51 Pan-STARRS 1, Haleakala.  Observers J. Bulger, T. Lowe, A. Schultz, I.
    Smith.  Measurers K. Chambers, S. Chastel, T. de Boer, J. Fairlamb, H.
    Gao, M. Huber, C.-C. Lin, E. Magnier, Y. Ramanjooloo, R. Wainscoat, R.
    Weryk.  1.8-m Ritchey-Chretien + CCD.
G02 KYSUCE Observatory, Kysucke Nove Mesto.  Observer M. Urbanik.  0.40-m
    f/6.8 Corrected Dall-Kirkham + CCD.
G17 BAS Observatory, Scandicci.  Observer L. Grazzini.  0.20-m f/10 Schmidt-
    Cassegrain + CCD + f/6.3 focal reducer.
H36 Sandlot Observatory, Scranton.  Observer G. Hug.  0.56-m f/4.8 reflector +
    CMO.
I93 St Pardon de Conques.  Observer F. Losse.  0.40-m f/3.7 reflector + CMO.
J95 Great Shefford.  Observer P. Birtwhistle.  0.41-m f/6.3 Schmidt-Cassegrain
    + CCD.
K61 Rokycany Observatory.  Observer M. Adamovsky.  0.51-m f/6.8 reflector +
    CCD.
K74 Muensterschwarzach Observatory, Schwarzach.  Observer C. Gerhard.  0.30-m
    f/3.75 reflector + CMO.
K83 Beppe Forti Astronomical Observatory, Montelupo.  Observers M. Tombelli,
    M. Lombardo, G. Interrante, F. Cheli, A. Mazzanti, A. Squilloni, M.
    Poggianti, M. Iozzi.  Measurers M. Tombelli, F. Bernardi.  0.40-m f/8
    Ritchey-Chretien + CCD.
K87 Dettelbach Vineyard Observatory.  Observer B. Haeusler.  0.30-m f/8.0
    0.30-m Schmidt-Cassegrain + CMOS + CMO.
L01 Visnjan Observatory, Tican.  Observers K. Korlevic, I. Lyon.  Measurer K.
    Korlevic.  1.0-m f/2.9 reflector + CCD.
L38 Gartensternwarte Schafsweide, Sehlde.  Observer A. Opitz.  0.35-m f/5.2
    Newton + CMO.
L65 Bredenkamp Observatory, Bremen.  Observer H. Duin.  0.23-m f/6.3 reflector
    + CMO.
M21 Schiaparelli Southern Observatory, Hakos.  Observers A. Aletti, F.
    Bellini, L. Buzzi, G. Galli.  Measurer L. Buzzi.  0.36-m f/8.4 reflector +
    CCD.
M22 ATLAS South Africa, Sutherland.  Observers L. Denneau, R. Siverd, J.
    Tonry, H. Weiland.  Measurers L. Denneau, N. Erasmus, A. Fitzsimmons, A.
    Lawrence, J. Robinson, R. Siverd, J. Tonry, H. Weiland.  0.5-m Reflector +
    CCD.
M49 IAS Remote Observatory, Hakos.  Observers D. Husar, M. Junius.  Measurer
    D. Husar.  0.25-m f/4.6 reflector + CMO.
U52 Shasta Valley Observatory, Grenada.  Observers J. E. Rogers, B. Haeusler.
    Measurers J. E. Rogers, D. Parrott.  0.30-m f/5.2 0.30-m Helin Telescope +
    CCD.
X09 Deep Random Survey, Rio Hurtado.  Observers A. Schnabel, D. Ruhela.
    Measurer S. Deen.  0.43-m reflector + CMOS.
Y05 SONEAR Wykrota-CEAMIG, Serra da Piedade.  Observer C. Jacques.  0.45-m
    f/2.9 reflector + CMO.
Z80 Northolt Branch Observatory.  Observer G. Wells.  Measurers G. Wells, D.
    Bamberger.  0.25-m f/8.0 Ritchey-Chretien + CCD.

Orbital elements:
2023 QE8                                                 Earth MOID = 0.0083 AU
Epoch 2023 Sept. 13.0 TT = JDT 2460200.5                Veres                   
M 336.89098              (2000.0)            P               Q                  
n   0.48541568     Peri.  265.27244     +0.43220669     -0.90153765             
a   1.6034676      Node   159.08195     +0.84861700     +0.39886891             
e   0.5434890      Incl.    3.31888     +0.30503535     +0.16773028             
P   2.03           H   24.02          G   0.15           U   8                  
Residuals in seconds of arc
230818 F51  0.1+  0.1+    230904 L01  0.6-  0.0     230904 L38  0.1-  0.3-
230818 F51  0.2-  0.1-    230904 G02  0.4+  0.4-    230904 L38  0.3+  0.1-
230818 F51  0.1+  0.1-    230904 G17  0.2+  0.6-    230904 L65  0.5+  0.3+
230904 M22  0.3-  0.3+    230904 104  0.3-  0.5+    230904 M21  0.3-  0.1-
230904 M22  0.2+  0.3+    230904 104  0.0   0.0     230904 M21  0.0   0.2-
230904 M22  0.1-  0.3+    230904 G17  0.2-  0.1+    230904 L65  0.6+  0.1-
230904 M22  0.9-  0.5-    230904 104  0.1-  0.0     230904 M21  0.2-  0.0
230904 X09  0.9-  1.3-    230904 I93  0.0   0.8-    230904 Z80  0.2-  0.1-
230904 X09  0.8-  0.0     230904 K83  0.4-  0.5+    230904 Y05  0.2-  0.1-
230904 H36  0.1-  0.2+    230904 I93  0.2-  0.3-    230904 K87  0.2-  0.3-
230904 H36  0.5-  0.0     230904 106  0.1+  0.0     230904 Z80  0.3+  0.1+
230904 H36  0.2-  0.2-    230904 J95  0.1-  0.2-    230904 Y05  0.2-  0.4+
230904 E23  0.1-  0.6+    230904 K83  0.5-  0.6-    230904 M49  0.5-  0.3+
230904 E23  0.2-  0.6+    230904 J95  0.1-  0.4-    230904 M49  0.1+  0.3-
230904 E23  0.0   0.6+    230904 C43  0.2+  0.1-    230904 Y05  0.1-  0.0
230904 K61  0.5+  0.2-    230904 J95  0.0   0.3+    230904 Z80  0.6+  0.4-
230904 K61  0.5+  0.1-    230904 J95  0.5-  0.2+    230904 M49  0.0   0.1+
230904 K61  0.7+  0.2-    230904 C43  0.0   0.0     230904 K87  0.1-  0.1-
230904 K61  0.6+  0.2-    230904 K83  0.0   0.1-    230904 K87  0.4-  0.3-
230904 K61  0.4+  0.1+    230904 106  0.0   0.1-    230904 K74  0.2+  0.1+
230904 K61  0.2+  0.4+    230904 C43  0.1+  0.2-    230904 K74  0.2+  0.2+
230904 L01  0.6-  0.2-    230904 I93  0.3-  0.0     230904 K74  0.2-  0.4-
230904 G02  0.3+  0.5-    230904 C43  0.1-  0.1-    230904 K74  0.1+  0.1-
230904 G17  0.3+  0.2+    230904 106  0.3-  0.1-    230904 K74  0.1-  0.4-
230904 L01  0.6-  0.3-    230904 L38  0.3-  0.3-    230904 K74  0.2-  0.3+
230904 L01  0.6-  0.2+    230904 L38  0.1-  0.1-    230904 K74  0.4-  0.2+
230904 G02  0.4+  0.0     230904 L38  0.3-  0.0     230905 U52  0.3-  0.3+
230904 L01  0.5-  0.1+    230904 106  0.2-  0.1-    230905 U52  0.4+  0.2-

Ephemeris:
2023 QE8                 a,e,i = 1.60, 0.54, 3                   q = 0.7320
Date    TT    R. A. (2000) Decl.     Delta      r    Elong.  Phase     V
2023 08 06    22 31 59.5 -04 13 05   0.3294  1.3194   154.5    19.3    23.2
...
2023 08 21    22 33 42.7 -04 51 02   0.1813  1.1900   168.5     9.8    21.3
...
2023 08 29    22 32 03.1 -06 42 49   0.1099  1.1198   176.9     2.8    19.8
...
2023 09 04    22 27 47.6 -11 11 25   0.05890 1.0672   173.5     6.2    18.5
2023 09 05    22 26 15.8 -12 48 01   0.05060 1.0585   171.3     8.3    18.2
2023 09 06    22 24 07.3 -15 01 56   0.04239 1.0498   168.5    11.1    18.0
...
2023 09 12    11 30 06.5 -45 22 12   0.01360 0.9980    49.9   129.5    20.3
...
2023 09 20    10 43 37.3 -05 41 42   0.07697 0.9314    17.3   161.2    29.7
...
2023 10 05    10 45 55.4 -00 55 01   0.2119  0.8213    29.0   143.9    27.6

M. P. C. Staff               (C) Copyright 2023 MPC           M.P.E.C. 2023-R14





More information about the Iaude mailing list